Starlink 33760

operational
NORAD ID: 63764 Int'l Des: 2025-089 Owner: SPXS Country: US Constellation: starlink
LEOCIRCULAR

关于 Starlink 33760

正在加载描述...

实时位置

正在加载3D地球...

即将过境

高度历史

Altitude vs Time

uPlot chart will show altitude changes over time

两行轨道根数

1 63764U 25089P 25352.46323682 .00018556 00000-0 68190-3 0 9993
2 63764 42.9980 144.0791 0001274 268.8420 91.2286 15.27591716 36539
Epoch: Dec 18, 2025 • Age: 10 hours

当前状态

高度 486.4 km
速度 7.63 km/s
星下点 40.72°N, 147.61°W
发射日期 Apr 29, 2025
运行时间 0.6 years
类型 internet

技术详情

分类 Payload
质量 575.00 kg
干质量 530.00 kg
总质量 575.00 kg
长度 0.30 m
直径 4.10 m
跨度 29.00 m
形状 Box + pan
制造商 SPXS
平台类型 Starlink V2MO
阶段状态 In Orbit
所有者/国家 SPXS/US

大型星座

Loading constellations...